Back to catalog

CENTISPACE-1 S15

AliveNavigationLEO
NORAD 62584·PAYLOAD·🇨🇳 China

Launched Jan 13, 2025 from Yellow Sea Launch Area

Loading…

Next Passes (next 24 hours)

TLE

FreshSource: Space-Track

Epoch: Sep 14, 2026, 14:39 UTC

1 62584U 25007K   26257.61074370 -.00000046  00000-0  90016-4 0  9990
2 62584  54.9885 339.8991 0011632 246.6637 113.3096 13.80583723 87081

Track CENTISPACE-1 S15 in real time with AllMySat

Download on the App Store